Starlink 33833

operational
NORAD ID: 63498 Int'l Des: 2025-071 Owner: SPXS Country: US Constellation: starlink
LEOCIRCULAR

Starlink 33833について

説明を読み込み中...

リアルタイム位置

3D地球を読み込み中...

次回通過

高度履歴

Altitude vs Time

uPlot chart will show altitude changes over time

軌道要素

1 63498U 25071F 25257.24463894 .00028536 00000-0 97124-3 0 9996
2 63498 53.1582 239.6166 0002565 95.7231 264.4062 15.30220522 25759
Epoch: Sep 14, 2025 • Age: 28 hours

現在のステータス

高度 493.7 km
速度 7.62 km/s
衛星直下点 -49.41°S, 32.55°E
打ち上げ日 Apr 7, 2025
運用期間 0.4 years
タイプ internet

技術仕様

分類 Payload
質量 575.00 kg
乾燥質量 530.00 kg
総質量 575.00 kg
長さ 0.30 m
直径 4.10 m
スパン 29.00 m
形状 Box + pan
製造者 SPXS
バスタイプ Starlink V2MO
フェーズステータス In Orbit
所有者/国 SPXS/US

大規模コンステレーション

Loading constellations...